Regional Weather Roundup
Issued by NWS Burlington, VT

Home | Current Version | Previous Version | Text Only | Print | Product List | Glossary On
Versions: 1 2 3 4 5 6 7 8 9 10 11 12 13 14 15 16 17 18 19 20 21 22 23 24 25 26 27 28 29 30 31 32 33 34 35 36 37 38 39 40 41 42 43 44 45 46 47 48 49 50
000
ASUS41 KBTV 031110
RWRBTV
VERMONT REGIONAL WEATHER ROUNDUP
NATIONAL WEATHER SERVICE BURLINGTON VT
700 AM EDT TUE AUG 03 2021

NOTE: "FAIR" INDICATES FEW OR NO CLOUDS BELOW 12,000 FEET WITH NO
SIGNIFICANT WEATHER AND/OR OBSTRUCTIONS TO VISIBILITY.

* THESE REPORTS ARE NOT UNDER NWS QUALITY CONTROL AND/OR DO NOT
  REPORT WEATHER SUCH AS PRECIPITATION AND FOG.

VTZ001>019-031200-
_____VERMONT_____


CITY           SKY/WX    TMP DP  RH WIND       PRES   REMARKS
BURLINGTON     MOSUNNY   60  51  72 S8        30.08R
MONTPELIER     FOG       50  49  96 CALM      30.14S VSB 3/4
MORRISVILLE    FOG       50  49  96 CALM      30.10S VSB 1/4
ST. JOHNSBURY*   N/A     49  48  97 MISG      30.10R
LYNDONVILLE*   FOG       48  48  97 CALM      30.12F VSB<1/4
MIDDLEBURY*    FAIR      50  49  97 CALM      30.11S
RUTLAND*       SUNNY     50  50 100 SE7       30.14R
SPRINGFIELD    FOG       50  50 100 CALM      30.14R VSB 1/4
HIGHGATE*      FAIR      61  53  74 S6        30.05S
NEWPORT*       FAIR      55  53  91 S5        30.09S
BENNINGTON     SUNNY     50  50 100 CALM      30.14R
LAKE EDEN*       N/A     48 N/A N/A CALM        N/A

_____LAKE CHAMPLAIN_____


CITY           SKY/WX    TMP DP  RH WIND       PRES   REMARKS
COLCHESTER RF*   N/A     63  57  82 S20         N/A

$$

NYZ007-026>031-035-052-083-087-031200-
_____NORTHERN NEW YORK_____


CITY           SKY/WX    TMP DP  RH WIND       PRES   REMARKS
PLATTSBURGH    SUNNY     56  53  90 S3        30.06S
SARANAC LAKE   SUNNY     46  46 100 CALM      30.10S
MASSENA        SUNNY     59  54  83 SW8       30.06S
OGDENSBURG*    FAIR      57  55  94 S5        30.04S
POTSDAM*       SUNNY     59  55  88 S8        30.06S
WATERTOWN      SUNNY     58  50  75 S6        30.09R
FT DRUM        SUNNY     56  51  81 SE8       30.08S
ALBANY         MOSUNNY   52  52 100 CALM      30.14R
GLENS FALLS    SUNNY     51  50  96 CALM      30.13R

$$
NHZ002-005-011-031200-
_____NEW HAMPSHIRE_____


CITY           SKY/WX    TMP DP  RH WIND       PRES   REMARKS
LEBANON        FOG       52  50  93 CALM      30.12S VSB 1/4
KEENE          FOG       52  52 100 CALM      30.15R VSB 1/2
MT WASHINGTON  MOSUNNY   40  39  97 NW30        N/A  WCI  28
PLYMOUTH       FOG       49  48  98 CALM      30.12S VSB 1/4
WHITEFIELD     SUNNY     45  44  97 CALM      30.11S

$$

_____REGIONAL QUEBEC LOCATIONS_____


CITY           SKY/WX    TMP DP  RH WIND       PRES   REMARKS
MONTREAL       MOSUNNY   63  57  82 SW16G22   30.00S
QUEBEC CITY    MOSUNNY   57  54  88 W13       29.93S
SHERBROOKE     SUNNY     52  52 100 CALM      30.03S

_____REGIONAL ONTARIO LOCATIONS_____


CITY           SKY/WX    TMP DP  RH WIND       PRES   REMARKS
OTTAWA         MOSUNNY   55  52  88 SW5       30.01F

______KEY______
VSB  - VISIBILITY IN MILES
WCI  - WIND CHILL INDEX
HX   - HEAT INDEX
$$
NNNN



USA.gov is the U.S. government's official web portal to all federal, state and local government web resources and services.